Location: McFarlands Corners
(41.4117°N, 81.3382°W)
Time: 09:24:30
(UTC+00:00)

Tiros 1 - Visible Passes

Search period start: 17 February 2026 00:00
Search period end: 27 February 2026 00:00
Orbit: 618 x 649 km, 48.4° (Epoch: 15 February)

Date Brightness Start Highest point End Pass type
(mag) Time Alt. Az. Time Alt. Az. Time Alt. Az.
21 Feb 9.9 10:56:01 10° SSE 10:58:20 14° SE 11:00:40 10° E visible
22 Feb 9.0 11:15:38 10° SSW 11:19:37 28° SE 11:23:34 10° ENE visible
23 Feb 10.0 09:58:54 10° SE 09:59:55 11° SE 10:00:55 10° ESE visible
23 Feb 7.8 11:36:31 10° SW 11:41:04 56° SE 11:45:34 10° ENE visible
24 Feb 9.2 10:17:28 10° S 10:21:08 23° SE 10:24:47 10° E visible
25 Feb 8.0 10:38:51 15° SSW 10:42:31 46° SE 10:46:56 10° ENE visible
26 Feb 9.3 09:22:41 19° SE 09:22:41 19° SE 09:25:53 10° E visible
26 Feb 7.1 11:00:05 14° WSW 11:04:03 86° SSE 11:08:42 10° ENE visible
